GW1727 Weather Reports


time (UTC)temp
C
wind
direction
speed
KPH
gust
KPH
rain 1hr
cm
rain 24hr
cm
rain mn
cm
humidity
%
barometer
mb
20260906203044 32 173 0.0 0.0 0.00 0.33 0.33 45 1008.0
20260906201543 32 195 0.0 0.0 0.00 0.33 0.33 44 1008.0
20260906200040 31 154 0.0 0.0 0.00 0.33 0.33 50 1008.3
20260906194538 31 139 0.0 0.0 0.00 0.33 0.33 51 1008.3
20260906193037 31 157 0.0 0.0 0.00 0.33 0.33 52 1008.5
20260906191533 30 165 0.0 0.0 0.00 0.33 0.33 52 1008.5
20260906190032 30 122 0.0 0.0 0.00 0.33 0.33 53 1008.8
20260906184533 29 145 0.0 0.0 0.00 0.33 0.33 55 1009.1
20260906183028 28 154 0.0 0.0 0.00 0.33 0.33 57 1009.3
20260906181529 28 156 0.0 0.0 0.00 0.33 0.33 58 1009.5
20260906180023 27 152 0.0 0.0 0.00 0.33 0.33 64 1009.9
20260906174521 27 154 0.0 0.0 0.00 0.33 0.33 67 1010.2
20260906173020 26 158 0.0 0.0 0.00 0.33 0.33 67 1010.5
20260906171518 26 149 0.0 0.0 0.00 0.33 0.33 69 1010.8
20260906170031 24 154 0.0 0.0 0.00 0.33 0.33 72 1010.6
20260906164518 24 145 0.0 0.0 0.00 0.33 0.33 72 1010.5
20260906163016 24 141 0.0 0.0 0.00 0.33 0.33 75 1011.1
20260906161515 22 141 0.0 0.0 0.00 0.33 0.33 78 1011.3
20260906160016 22 139 0.0 0.0 0.00 0.33 0.33 79 1011.5
20260906154520 22 140 0.0 0.0 0.00 0.33 0.33 80 1011.7
20260906153021 21 139 0.0 0.0 0.00 0.33 0.33 80 1011.8
20260906151512 21 120 0.0 0.0 0.00 0.33 0.33 81 1011.9
20260906150012 21 122 0.0 0.0 0.00 0.33 0.33 81 1011.9
20260906144511 20 117 0.0 0.0 0.00 0.33 0.33 82 1012.1
20260906143011 20 112 0.0 0.0 0.00 0.33 0.33 82 1012.0
20260906141507 20 96 0.0 0.0 0.00 0.33 0.33 82 1011.8
20260906140009 20 82 0.0 0.0 0.00 0.33 0.33 82 1011.5
20260906134511 20 78 0.0 0.0 0.00 0.33 0.33 82 1011.2
20260906133005 20 79 0.0 0.0 0.00 0.33 0.33 82 1011.2
20260906131506 20 83 0.0 0.0 0.00 0.33 0.33 82 1011.3
20260906130002 20 108 0.0 0.0 0.00 0.33 0.33 82 1011.1
20260906124506 20 100 0.0 0.0 0.00 0.33 0.33 82 1011.1
20260906123002 20 114 0.0 0.0 0.00 0.33 0.33 82 1011.2
20260906121501 20 87 0.0 0.0 0.00 0.33 0.33 82 1011.1
20260906120001 20 100 0.0 0.0 0.00 0.33 0.33 82 1011.2
20260906114609 20 91 0.0 0.0 0.00 0.33 0.33 82 1010.9
20260906113057 20 101 0.0 0.0 0.00 0.33 0.33 82 1010.3
20260906111557 20 88 0.0 0.0 0.00 0.33 0.33 82 1010.1
20260906110055 20 73 0.0 0.0 0.00 0.33 0.33 82 1010.2
20260906104555 19 64 0.0 0.0 0.00 0.33 0.33 81 1010.1
20260906103056 19 66 0.0 0.0 0.00 0.33 0.33 81 1010.4
20260906101554 19 45 0.0 0.0 0.15 0.33 0.33 81 1010.3
20260906100056 19 45 0.0 0.0 0.30 0.33 0.33 81 1010.1
20260906094604 19 43 0.0 0.0 0.33 0.33 0.33 81 1010.5
20260906093052 19 46 0.0 0.0 0.33 0.33 0.33 81 1010.4
20260906091601 20 18 0.0 0.0 0.18 0.18 0.18 80 1010.3
20260906090045 20 25 0.0 0.0 0.03 0.03 0.03 79 1009.6
20260906084542 21 354 0.0 0.0 0.00 0.00 0.00 77 1009.8
20260906083038 22 359 0.0 0.0 0.00 0.00 0.00 72 1009.9
20260906081535 25 326 0.0 0.0 0.00 0.00 0.00 64 1009.3
20260906080035 25 239 0.0 0.0 0.00 0.00 0.00 64 1008.5
20260906074536 25 203 0.0 0.0 0.00 0.00 0.00 63 1008.3
20260906073031 25 172 0.0 0.0 0.00 0.00 0.00 63 1008.2
20260906071530 25 201 0.0 0.0 0.00 0.00 0.00 63 1008.2
20260906070029 25 170 0.0 0.0 0.00 0.00 0.00 63 1008.0
20260906064528 25 185 0.0 0.0 0.00 0.00 0.00 64 1008.1
20260906063029 25 154 0.0 0.0 0.00 0.00 0.00 64 1008.3
20260906061526 25 180 0.0 0.0 0.00 0.00 0.00 63 1008.6
20260906060025 25 172 0.0 0.0 0.00 0.00 0.00 63 1008.6
20260906054527 25 200 0.0 0.0 0.00 0.00 0.00 62 1008.3
20260906053022 25 177 0.0 0.0 0.00 0.00 0.00 63 1008.2
20260906051518 25 156 0.0 0.0 0.00 0.00 0.00 65 1008.3
20260906050016 25 125 0.0 0.0 0.00 0.00 0.00 65 1008.4
20260906044516 25 107 0.0 0.0 0.00 0.00 0.00 63 1008.4
20260906043027 25 142 0.0 0.0 0.00 0.00 0.00 62 1008.3
20260906041515 26 131 0.0 0.0 0.00 0.00 0.00 61 1008.2
20260906040015 26 148 0.0 0.0 0.00 0.00 0.00 59 1008.2
20260906034514 26 165 0.0 0.0 0.00 0.00 0.00 58 1008.0
20260906033020 27 148 0.0 0.0 0.00 0.00 0.00 57 1008.0
20260906031515 27 157 0.0 0.0 0.00 0.00 0.00 56 1007.8
20260906030019 27 141 0.0 0.0 0.00 0.00 0.00 56 1007.9
20260906024512 27 147 0.0 0.0 0.00 0.00 0.00 55 1007.8
20260906023012 28 146 0.0 0.0 0.00 0.00 0.00 55 1007.5
20260906021512 28 144 0.0 0.0 0.00 0.00 0.00 53 1007.3
20260906020011 29 145 0.0 0.0 0.00 0.00 0.00 52 1007.3
20260906014511 30 143 0.0 0.0 0.00 0.00 0.00 50 1007.2
20260906013011 30 159 0.0 0.0 0.00 0.00 0.00 48 1007.2
20260906011510 31 145 0.0 0.0 0.00 0.00 0.00 46 1007.0
20260906010009 32 147 0.0 0.0 0.00 0.00 0.00 41 1007.1
20260906004509 33 114 0.0 0.0 0.00 0.00 0.00 38 1006.9
20260906003008 33 121 0.0 0.0 0.00 0.00 0.00 37 1006.6
20260906001516 33 132 0.0 0.0 0.00 0.00 0.00 36 1006.1
20260906000019 33 139 0.0 0.0 0.00 0.00 0.00 35 1006.1
20260905234508 34 147 0.0 0.0 0.00 0.00 0.00 35 1006.2
20260905233006 34 152 0.0 0.0 0.00 0.00 0.00 33 1006.0
20260905231506 34 144 0.0 0.0 0.00 0.00 0.00 33 1005.7
20260905230005 34 156 0.0 0.0 0.00 0.00 0.00 34 1005.7
20260905224505 35 150 0.0 0.0 0.00 0.00 0.00 33 1005.6
20260905223007 35 150 0.0 0.0 0.00 0.00 0.00 32 1005.8
20260905221502 35 136 0.0 0.0 0.00 0.00 0.00 32 1005.8
20260905220002 35 156 0.0 0.0 0.00 0.00 0.00 31 1005.9
20260905214603 35 120 0.0 0.0 0.00 0.00 0.00 31 1006.0
20260905213102 35 124 0.0 0.0 0.00 0.00 0.00 31 1006.1
20260905211600 35 144 0.0 0.0 0.00 0.00 0.00 32 1006.4
20260905210115 35 161 0.0 0.0 0.00 0.00 0.00 28 1006.6
20260905204602 35 154 0.0 0.0 0.00 0.00 0.00 31 1006.8